Stations météo

Publicité
Beauvais, France (7055): Température de l'air & dewpoint: 06.08.2020 08:00:00 - 12.08.2020 08:00:00 (CEST)Beauvais, France (7055): Température de l'air 5cm: 06.08.2020 08:00:00 - 12.08.2020 08:00:00 (CEST)Beauvais, France (7055): Température de l'air -20cm & Température de l'air -100cm: 06.08.2020 08:00:00 - 12.08.2020 08:00:00 (CEST)Beauvais, France (7055): Vitesse du vent & gusts: 06.08.2020 08:00:00 - 12.08.2020 08:00:00 (CEST)Beauvais, France (7055): Direction du vent: 06.08.2020 08:00:00 - 12.08.2020 08:00:00 (CEST)Beauvais, France (7055): reduced air pressure: 06.08.2020 08:00:00 - 12.08.2020 08:00:00 (CEST)Beauvais, France (7055): visibility: 06.08.2020 08:00:00 - 12.08.2020 08:00:00 (CEST)Beauvais, France (7055): Ensoleillement: 06.08.2020 08:00:00 - 12.08.2020 08:00:00 (CEST)Beauvais, France (7055): Quantités de précipitations: 06.08.2020 08:00:00 - 12.08.2020 08:00:00 (CEST)
Date & Time tt [°C] td [°C] tt 5cm [°C] tt -20cm [°C] tt -100cm [°C] ff [km/h] ff [knt] fx [km/h] fx [knt] dd ppp [hPa] vv [km] sd [min] rr [mm]
12.08.2020 08:00:00 - - - - - - - - - - - - - -
12.08.2020 07:00:00 - - - - - - - - - - - - - -
12.08.2020 06:00:00 - - - - - - - - - - - - - -
12.08.2020 05:00:00 - - - - - - - - - - - - - -
12.08.2020 04:00:00 - - - - - - - - - - - - - -
12.08.2020 03:00:00 - - - - - - - - - - - - - -
12.08.2020 02:00:00 - - - - - - - - - - - - - -
12.08.2020 01:00:00 - - - - - - - - - - - - - -
12.08.2020 00:00:00 - - - - - - - - - - - - - -
11.08.2020 23:00:00 - - - - - - - - - - - - - -
11.08.2020 22:00:00 - - - - - - - - - - - - - -
11.08.2020 21:00:00 - - - - - - - - - - - - - -
11.08.2020 20:00:00 - - - - - - - - - - - - - -
11.08.2020 19:00:00 - - - - - - - - - - - - - -
11.08.2020 18:00:00 - - - - - - - - - - - - - -
11.08.2020 17:00:00 - - - - - - - - - - - - - -
11.08.2020 16:00:00 - - - - - - - - - - - - - -
11.08.2020 15:00:00 - - - - - - - - - - - - - -
11.08.2020 14:00:00 - - - - - - - - - - - - - -
11.08.2020 13:00:00 - - - - - - - - - - - - - -
11.08.2020 12:00:00 - - - - - - - - - - - - - -
11.08.2020 11:00:00 - - - - - - - - - - - - - -
11.08.2020 10:00:00 - - - - - - - - - - - - - -
11.08.2020 09:00:00 - - - - - - - - - - - - - -
11.08.2020 08:00:00 - - - - - - - - - - - - - -
11.08.2020 07:00:00 - - - - - - - - - - - - - -
11.08.2020 06:00:00 - - - - - - - - - - - - - -
11.08.2020 05:00:00 - - - - - - - - - - - - - -
11.08.2020 04:00:00 - - - - - - - - - - - - - -
11.08.2020 03:00:00 - - - - - - - - - - - - - -
11.08.2020 02:00:00 - - - - - - - - - - - - - -
11.08.2020 01:00:00 - - - - - - - - - - - - - -
11.08.2020 00:00:00 - - - - - - - - - - - - - -
10.08.2020 23:00:00 - - - - - - - - - - - - - -
10.08.2020 22:00:00 - - - - - - - - - - - - - -
10.08.2020 21:00:00 - - - - - - - - - - - - - -
10.08.2020 20:00:00 - - - - - - - - - - - - - -
10.08.2020 19:00:00 - - - - - - - - - - - - - -
10.08.2020 18:00:00 - - - - - - - - - - - - - -
10.08.2020 17:00:00 - - - - - - - - - - - - - -
10.08.2020 16:00:00 - - - - - - - - - - - - - -
10.08.2020 15:00:00 - - - - - - - - - - - - - -
10.08.2020 14:00:00 - - - - - - - - - - - - - -
10.08.2020 13:00:00 - - - - - - - - - - - - - -
10.08.2020 12:00:00 - - - - - - - - - - - - - -
10.08.2020 11:00:00 - - - - - - - - - - - - - -
10.08.2020 10:00:00 - - - - - - - - - - - - - -
10.08.2020 09:00:00 - - - - - - - - - - - - - -
10.08.2020 08:00:00 22,0 17,1 - - - 5 3 8 4 NE 1013,5 29 - -
10.08.2020 07:00:00 21,3 16,9 19,8 21,3 17,4 4 2 9 5 S 1013,3 29 0 0,0
10.08.2020 06:00:00 21,5 16,5 19,3 21,3 17,5 3 2 10 5 W 1013,4 36 0 0,0
10.08.2020 05:00:00 21,9 16,4 20,2 21,3 17,4 6 3 18 10 W 1013,7 33 0 0,0
10.08.2020 04:00:00 22,8 16,6 22,0 21,3 17,4 15 8 41 22 ENE 1014,6 54 0 0,0
10.08.2020 03:00:00 24,6 15,0 22,3 21,3 17,4 5 3 21 12 NW 1013,3 54 0 0,0
10.08.2020 02:00:00 25,4 14,8 23,4 21,2 17,4 6 4 33 18 WSW 1013,0 60 0 0,0
10.08.2020 01:00:00 26,6 15,6 25,7 21,2 17,4 22 12 55 30 S 1013,7 55 0 0,0
10.08.2020 00:00:00 27,3 16,3 26,7 21,1 17,3 37 20 72 39 SSE 1014,3 20 0 0,0
09.08.2020 23:00:00 28,6 15,5 27,0 21,0 17,4 33 18 50 27 SSE 1013,2 19 0 0,0
09.08.2020 22:00:00 30,4 14,5 27,4 20,9 17,3 26 14 36 20 E 1011,9 39 8 0,0
09.08.2020 21:00:00 32,9 14,0 32,7 20,8 17,3 19 10 46 25 E 1011,7 29 52 0,0
09.08.2020 20:00:00 35,2 13,4 35,2 20,7 17,3 18 10 34 18 NNE 1011,1 20 57 0,0
09.08.2020 19:00:00 37,5 12,9 38,1 20,6 17,3 6 4 21 11 ENE 1010,7 29 52 0,0
09.08.2020 18:00:00 37,8 13,1 39,5 20,5 17,3 11 6 31 17 SSE 1011,3 20 48 0,0
09.08.2020 17:00:00 37,8 12,4 38,3 20,4 17,3 14 8 33 18 SE 1011,9 47 49 0,0
09.08.2020 16:00:00 37,5 12,9 43,6 20,3 17,3 10 6 34 19 SE 1012,7 21 60 0,0
09.08.2020 15:00:00 37,4 11,4 43,3 20,2 17,3 20 11 39 21 ESE 1013,2 20 60 0,0
09.08.2020 14:00:00 36,3 11,9 43,0 20,1 17,2 20 11 40 22 ENE 1013,8 20 60 0,0
09.08.2020 13:00:00 35,6 13,7 40,9 20,2 17,3 23 12 52 28 NE 1014,3 22 60 0,0
09.08.2020 12:00:00 33,6 13,6 38,8 20,2 17,2 20 11 30 16 ENE 1014,8 24 60 0,0
09.08.2020 11:00:00 32,1 15,1 34,8 20,2 17,2 16 9 27 14 E 1015,5 27 53 0,0
09.08.2020 10:00:00 30,9 15,3 30,3 20,2 17,2 16 9 24 13 E 1015,7 27 60 0,0
09.08.2020 09:00:00 24,8 17,3 22,9 20,2 17,2 7 4 14 8 SE 1016,2 28 25 0,0
09.08.2020 08:00:00 22,6 17,1 19,5 20,2 17,2 3 1 19 11 NNE 1016,1 31 12 0,0
09.08.2020 07:00:00 22,1 15,9 19,6 20,2 17,2 3 2 13 7 WSW 1016,3 18 0 0,0
09.08.2020 06:00:00 23,5 16,3 20,1 20,2 17,2 8 4 29 16 NE 1016,1 20 0 0,0
09.08.2020 05:00:00 22,0 18,0 20,0 20,2 17,2 5 3 17 9 WSW 1016,3 27 0 0,0
09.08.2020 04:00:00 23,1 17,8 22,3 20,3 17,2 16 9 31 17 NW 1016,2 23 0 0,0
09.08.2020 03:00:00 24,9 15,5 22,9 20,2 17,2 9 5 25 13 SSE 1016,4 18 0 0,0
09.08.2020 02:00:00 25,7 15,4 23,3 20,2 17,2 5 3 29 16 NE 1016,5 32 0 0,0
09.08.2020 01:00:00 26,2 14,3 22,7 20,2 17,1 15 8 21 12 NNE 1016,4 32 0 0,0
09.08.2020 00:00:00 24,7 15,6 20,4 20,1 17,1 9 5 14 8 WSW 1017,4 16 0 0,0
08.08.2020 23:00:00 24,0 14,7 20,7 20,1 17,1 8 4 13 7 NNE 1016,9 35 0 0,0
08.08.2020 22:00:00 27,0 14,7 23,1 20,0 17,1 11 6 15 8 N 1016,9 36 0 0,0
08.08.2020 21:00:00 30,1 13,8 27,2 19,9 17,1 11 6 27 15 N 1016,7 6 0 0,0
08.08.2020 20:00:00 31,7 13,5 29,9 19,9 17,1 5 3 11 6 N 1016,6 8 0 0,0
08.08.2020 19:00:00 34,0 13,5 34,2 19,8 17,1 3 1 11 6 N 1016,6 31 0 0,0
08.08.2020 18:00:00 34,7 11,2 38,0 19,7 17,1 5 3 16 9 WNW 1016,7 27 12 0,0
08.08.2020 17:00:00 34,9 12,5 37,1 19,7 17,1 5 3 16 9 NNW 1016,9 38 13 0,0
08.08.2020 16:00:00 33,9 12,3 36,0 19,7 17,1 8 5 15 8 E 1017,1 45 0 0,0
08.08.2020 15:00:00 33,2 12,2 35,2 19,6 17,0 12 7 23 12 S 1017,9 11 0 0,0
08.08.2020 14:00:00 33,4 12,9 35,7 19,7 17,0 11 6 20 11 SSE 1018,1 5 0 0,0
08.08.2020 13:00:00 34,3 14,2 35,0 19,7 17,0 7 4 24 13 S 1017,9 18 37 0,0
08.08.2020 12:00:00 32,6 14,7 36,6 19,7 17,0 7 4 16 9 ESE 1018,3 26 43 0,0
08.08.2020 11:00:00 27,4 17,0 24,8 19,7 17,0 4 2 18 10 W 1018,5 29 6 0,0
08.08.2020 10:00:00 23,9 16,4 20,8 19,8 17,0 16 8 19 10 ESE 1018,4 21 4 0,2
08.08.2020 09:00:00 25,4 13,3 27,9 19,8 17,0 3 2 9 5 ESE 1018,5 34 56 0,0
08.08.2020 08:00:00 20,5 13,9 15,9 19,9 17,0 2 1 12 7 SSW 1018,5 36 43 0,0
08.08.2020 07:00:00 16,0 12,4 13,2 19,9 17,0 7 4 12 7 NNW 1018,5 33 0 0,0
08.08.2020 06:00:00 15,6 12,2 12,3 19,9 17,0 9 5 10 6 NW 1018,4 32 0 0,0
08.08.2020 05:00:00 16,4 11,8 12,5 19,9 16,9 4 2 6 4 WNW 1018,3 34 0 0,0
08.08.2020 04:00:00 16,6 11,7 13,4 20,0 16,9 6 3 11 6 NW 1018,3 33 0 0,0
08.08.2020 03:00:00 17,5 12,4 14,9 20,0 16,9 9 5 14 8 NW 1018,1 34 0 0,0
08.08.2020 02:00:00 19,1 11,9 15,1 19,9 16,9 5 3 8 4 NNW 1018,1 50 0 0,0
08.08.2020 01:00:00 20,8 12,0 15,9 19,9 16,9 2 1 9 5 SW 1018,1 36 0 0,0
08.08.2020 00:00:00 22,0 11,7 16,5 19,8 16,9 5 3 6 4 NE 1017,8 37 0 0,0
07.08.2020 23:00:00 24,2 11,2 18,0 19,7 16,9 3 2 27 15 S 1017,6 39 0 0,0
07.08.2020 22:00:00 26,2 10,8 22,4 19,6 16,9 12 7 45 24 ENE 1017,1 46 0 0,0
07.08.2020 21:00:00 31,1 11,5 28,4 19,5 16,9 13 7 28 15 E 1016,3 43 29 0,0
07.08.2020 20:00:00 34,2 10,1 33,9 19,3 16,9 10 5 22 12 E 1016,1 36 60 0,0
07.08.2020 19:00:00 34,9 11,3 38,2 19,2 16,8 13 7 28 15 E 1016,0 18 60 0,0
07.08.2020 18:00:00 35,2 10,9 40,8 19,1 16,9 12 6 24 13 SSE 1016,4 50 60 0,0
07.08.2020 17:00:00 35,3 11,0 41,6 19,0 16,9 14 7 29 16 SE 1016,6 20 60 0,0
07.08.2020 16:00:00 35,1 11,5 41,8 18,9 16,8 16 8 30 16 E 1016,8 20 60 0,0
07.08.2020 15:00:00 34,4 9,6 41,6 18,9 16,8 15 8 39 21 ESE 1017,2 37 60 0,0
07.08.2020 14:00:00 34,0 12,4 40,3 18,8 16,8 15 8 36 20 E 1017,6 27 60 0,0
07.08.2020 13:00:00 32,9 12,5 39,0 18,8 16,8 22 12 35 19 SE 1018,0 22 60 0,0
07.08.2020 12:00:00 31,5 12,8 37,7 18,9 16,8 23 12 30 16 E 1018,5 20 60 0,0
07.08.2020 11:00:00 29,5 14,1 35,1 18,9 16,8 11 6 19 10 ESE 1018,9 53 60 0,0
07.08.2020 10:00:00 26,3 13,1 29,9 19,0 16,8 8 4 14 8 SE 1019,0 52 60 0,0
07.08.2020 09:00:00 23,4 12,1 28,1 19,0 16,8 5 3 11 6 SE 1019,1 44 60 0,0
07.08.2020 08:00:00 17,3 11,6 12,7 19,0 16,8 0 0 3 2 N 1019,2 29 44 0,0
07.08.2020 07:00:00 13,5 10,3 10,0 19,1 16,8 0 0 8 4 N 1018,9 34 0 0,0
07.08.2020 06:00:00 14,2 10,0 10,6 19,1 16,8 5 3 7 4 NNE 1018,6 35 0 0,0
07.08.2020 05:00:00 13,6 9,8 11,1 19,1 16,8 3 2 7 4 N 1018,5 19 0 0,0
07.08.2020 04:00:00 14,2 10,0 11,7 19,1 16,8 4 2 6 3 N 1018,5 37 0 0,0
07.08.2020 03:00:00 15,8 10,1 12,0 19,1 16,8 3 2 5 3 N 1018,5 37 0 0,0
07.08.2020 02:00:00 18,6 9,6 12,9 19,1 16,8 3 2 4 2 NE 1018,4 40 0 0,0
07.08.2020 01:00:00 19,9 9,2 13,2 19,0 16,8 3 1 6 4 ESE 1018,3 36 0 0,0
07.08.2020 00:00:00 20,4 8,7 13,7 19,0 16,7 4 2 5 3 ESE 1018,1 36 0 0,0
06.08.2020 23:00:00 22,0 7,8 15,6 18,9 16,8 2 1 11 6 ESE 1017,9 35 0 0,0
06.08.2020 22:00:00 24,0 7,6 18,5 18,8 16,7 8 4 21 11 ENE 1017,4 14 0 0,0
06.08.2020 21:00:00 30,0 8,4 26,3 18,7 16,7 8 5 17 9 E 1016,7 47 27 0,0
06.08.2020 20:00:00 32,0 7,6 31,8 18,5 16,7 10 5 19 10 SE 1016,4 47 60 0,0
06.08.2020 19:00:00 33,4 6,6 37,4 18,3 16,7 3 2 24 13 ESE 1016,2 35 60 0,0
06.08.2020 18:00:00 33,5 6,7 39,2 18,2 16,8 10 6 24 13 SSE 1016,3 38 60 0,0
06.08.2020 17:00:00 33,2 7,2 40,1 18,1 16,7 11 6 32 17 SE 1016,5 49 60 0,0
06.08.2020 16:00:00 32,9 6,2 40,3 18,0 16,7 12 7 26 14 ESE 1016,7 53 60 0,0
06.08.2020 15:00:00 32,9 6,2 40,0 18,0 16,7 16 8 29 15 S 1016,9 44 60 0,0
06.08.2020 14:00:00 31,9 8,2 40,4 18,0 16,7 8 5 23 13 SSE 1017,3 20 60 0,0
06.08.2020 13:00:00 30,9 9,7 39,0 18,0 16,7 6 3 19 10 S 1017,7 43 60 0,0
06.08.2020 12:00:00 28,3 10,0 33,5 18,0 16,7 6 3 16 9 S 1018,0 44 60 0,0
06.08.2020 11:00:00 24,6 10,5 30,0 18,1 16,7 8 5 20 11 ESE 1018,2 38 60 0,0
06.08.2020 10:00:00 22,7 11,4 27,6 18,1 16,7 8 4 14 8 SE 1018,2 20 60 0,0
06.08.2020 09:00:00 20,4 11,9 20,7 18,2 16,7 3 1 8 4 SSE 1018,0 39 60 0,0
06.08.2020 08:00:00 14,3 11,8 10,6 18,2 16,7 7 4 12 7 NW 1018,1 25 43 0,0

tt = Température de l'air
td = dewpoint
tt 5cm = Température de l'air 5cm
tt -20cm = Température de l'air -20cm
tt -100cm = Température de l'air -100cm
ff = Vitesse du vent
fx = gusts
dd = Direction du vent
ppp = reduced air pressure
vv = visibility
sd = Ensoleillement
rr = Quantités de précipitations

stations d'obs. à proximité